iso_date,epoch_date,Year,Hour,Min,DOY,POS_DOY,Lat,Lon,BP,Ts,Ta,has_bp,has_ts,has_ta,BuoyID,Buoy_Type,Buoy_Owner,Logistics,Hemisphere
2021-08-18T23:13:03Z,1629328383,2021,23,13,230.9674,230.9674,70.06417,-52.3609,-999.00,-999.00,-999.0,no,no,no,4434936,SPIT,USIABP,ICE-PPR<br>DiskoBay,South
2021-08-18T23:22:59Z,1629328980,2021,23,23,230.9743,230.9743,70.06451,-52.36029,-999.00,-999.00,-999.0,no,no,no,4434936,SPIT,USIABP,ICE-PPR<br>DiskoBay,South
2021-08-18T23:33:04Z,1629329584,2021,23,33,230.9813,230.9813,70.06419,-52.36081,-999.00,-999.00,-999.0,no,no,no,4434936,SPIT,USIABP,ICE-PPR<br>DiskoBay,South
2021-08-19T00:03:01Z,1629331381,2021,0,3,231.0021,231.0021,70.06422,-52.3605,-999.00,-999.00,-999.0,no,no,no,4434936,SPIT,USIABP,ICE-PPR<br>DiskoBay,South
2021-08-19T00:31:58Z,1629333118,2021,0,32,231.0222,231.0222,70.06456,-52.36026,-999.00,-999.00,-999.0,no,no,no,4434936,SPIT,USIABP,ICE-PPR<br>DiskoBay,South
2021-08-19T01:02:55Z,1629334976,2021,1,3,231.0437,231.0437,70.06431,-52.36047,-999.00,-999.00,-999.0,no,no,no,4434936,SPIT,USIABP,ICE-PPR<br>DiskoBay,South
2021-08-19T01:32:00Z,1629336721,2021,1,32,231.0639,231.0639,70.06422,-52.36154,-999.00,-999.00,-999.0,no,no,no,4434936,SPIT,USIABP,ICE-PPR<br>DiskoBay,South
2021-08-19T02:03:59Z,1629338639,2021,2,4,231.0861,231.0861,70.06435,-52.36105,-999.00,-999.00,-999.0,no,no,no,4434936,SPIT,USIABP,ICE-PPR<br>DiskoBay,South
2021-08-19T02:32:03Z,1629340324,2021,2,32,231.1056,231.1056,70.0646,-52.3606,-999.00,-999.00,-999.0,no,no,no,4434936,SPIT,USIABP,ICE-PPR<br>DiskoBay,South
2021-08-19T03:04:01Z,1629342242,2021,3,4,231.1278,231.1278,70.06443,-52.3605,-999.00,-999.00,-999.0,no,no,no,4434936,SPIT,USIABP,ICE-PPR<br>DiskoBay,South
2021-08-19T03:31:58Z,1629343918,2021,3,32,231.1472,231.1472,70.06453,-52.36057,-999.00,-999.00,-999.0,no,no,no,4434936,SPIT,USIABP,ICE-PPR<br>DiskoBay,South
2021-08-19T04:02:03Z,1629345724,2021,4,2,231.1681,231.1681,70.06461,-52.36041,-999.00,-999.00,-999.0,no,no,no,4434936,SPIT,USIABP,ICE-PPR<br>DiskoBay,South
2021-08-19T04:32:00Z,1629347521,2021,4,32,231.1889,231.1889,70.06452,-52.36041,-999.00,-999.00,-999.0,no,no,no,4434936,SPIT,USIABP,ICE-PPR<br>DiskoBay,South
2021-08-19T05:31:03Z,1629351063,2021,5,31,231.2299,231.2299,70.0642,-52.36067,-999.00,-999.00,-999.0,no,no,no,4434936,SPIT,USIABP,ICE-PPR<br>DiskoBay,South
2021-08-19T06:01:00Z,1629352860,2021,6,1,231.2507,231.2507,70.0642,-52.36041,-999.00,-999.00,-999.0,no,no,no,4434936,SPIT,USIABP,ICE-PPR<br>DiskoBay,South
2021-08-19T06:30:57Z,1629354658,2021,6,31,231.2715,231.2715,70.06446,-52.35974,-999.00,-999.00,-999.0,no,no,no,4434936,SPIT,USIABP,ICE-PPR<br>DiskoBay,South
2021-08-19T07:00:02Z,1629356403,2021,7,0,231.2917,231.2917,70.06419,-52.36013,-999.00,-999.00,-999.0,no,no,no,4434936,SPIT,USIABP,ICE-PPR<br>DiskoBay,South
2021-08-19T07:30:00Z,1629358200,2021,7,30,231.3125,231.3125,70.06406,-52.36047,-999.00,-999.00,-999.0,no,no,no,4434936,SPIT,USIABP,ICE-PPR<br>DiskoBay,South
2021-08-19T07:59:57Z,1629359997,2021,8,0,231.3333,231.3333,70.06402,-52.36038,-999.00,-999.00,-999.0,no,no,no,4434936,SPIT,USIABP,ICE-PPR<br>DiskoBay,South
2021-08-19T09:00:00Z,1629363600,2021,9,0,231.375,231.375,70.06449,-52.35966,-999.00,-999.00,-999.0,no,no,no,4434936,SPIT,USIABP,ICE-PPR<br>DiskoBay,South
2021-08-19T09:29:57Z,1629365397,2021,9,30,231.3958,231.3958,70.06415,-52.36069,-999.00,-999.00,-999.0,no,no,no,4434936,SPIT,USIABP,ICE-PPR<br>DiskoBay,South
2021-08-19T09:59:02Z,1629367142,2021,9,59,231.416,231.416,70.06439,-52.35989,-999.00,-999.00,-999.0,no,no,no,4434936,SPIT,USIABP,ICE-PPR<br>DiskoBay,South
2021-08-19T10:30:00Z,1629369000,2021,10,30,231.4375,231.4375,70.06453,-52.36008,-999.00,-999.00,-999.0,no,no,no,4434936,SPIT,USIABP,ICE-PPR<br>DiskoBay,South
2021-08-19T10:59:57Z,1629370797,2021,11,0,231.4583,231.4583,70.0647,-52.36008,-999.00,-999.00,-999.0,no,no,no,4434936,SPIT,USIABP,ICE-PPR<br>DiskoBay,South
2021-08-19T11:30:02Z,1629372603,2021,11,30,231.4792,231.4792,70.0647,-52.35999,-999.00,-999.00,-999.0,no,no,no,4434936,SPIT,USIABP,ICE-PPR<br>DiskoBay,South
2021-08-19T11:57:59Z,1629374279,2021,11,58,231.4986,231.4986,70.06778,-52.38259,-999.00,-999.00,-999.0,no,no,no,4434936,SPIT,USIABP,ICE-PPR<br>DiskoBay,South
2021-08-19T12:27:56Z,1629376076,2021,12,28,231.5194,231.5194,70.05933,-52.44267,-999.00,-999.00,-999.0,no,no,no,4434936,SPIT,USIABP,ICE-PPR<br>DiskoBay,South
2021-08-19T12:58:01Z,1629377882,2021,12,58,231.5403,231.5403,70.07438,-52.57468,-999.00,-999.00,-999.0,no,no,no,4434936,SPIT,USIABP,ICE-PPR<br>DiskoBay,South
2021-08-19T13:27:59Z,1629379679,2021,13,28,231.5611,231.5611,70.06277,-52.5593,-999.00,-999.00,-999.0,no,no,no,4434936,SPIT,USIABP,ICE-PPR<br>DiskoBay,South
2021-08-19T15:27:04Z,1629386824,2021,15,27,231.6438,231.6438,70.27691,-53.54914,-999.00,-999.00,-999.0,no,no,no,4434936,SPIT,USIABP,ICE-PPR<br>DiskoBay,South
2021-08-19T15:57:01Z,1629388621,2021,15,57,231.6646,231.6646,70.30154,-53.66913,-999.00,-999.00,-999.0,no,no,no,4434936,SPIT,USIABP,ICE-PPR<br>DiskoBay,South
2021-08-19T16:26:58Z,1629390419,2021,16,27,231.6854,231.6854,70.31829,-53.807,-999.00,-999.00,-999.0,no,no,no,4434936,SPIT,USIABP,ICE-PPR<br>DiskoBay,South
2021-08-19T16:56:55Z,1629392216,2021,16,57,231.7062,231.7062,70.31807,-53.81567,-999.00,-999.00,-999.0,no,no,no,4434936,SPIT,USIABP,ICE-PPR<br>DiskoBay,South
2021-08-19T17:27:01Z,1629394021,2021,17,27,231.7271,231.7271,70.28467,-53.57792,-999.00,-999.00,-999.0,no,no,no,4434936,SPIT,USIABP,ICE-PPR<br>DiskoBay,South
2021-08-19T17:56:58Z,1629395819,2021,17,57,231.7479,231.7479,70.24683,-53.27863,-999.00,-999.00,-999.0,no,no,no,4434936,SPIT,USIABP,ICE-PPR<br>DiskoBay,South
2021-08-19T18:27:04Z,1629397624,2021,18,27,231.7688,231.7688,70.21125,-52.97119,-999.00,-999.00,-999.0,no,no,no,4434936,SPIT,USIABP,ICE-PPR<br>DiskoBay,South
2021-08-19T18:57:01Z,1629399421,2021,18,57,231.7896,231.7896,70.20605,-52.89863,-999.00,-999.00,-999.0,no,no,no,4434936,SPIT,USIABP,ICE-PPR<br>DiskoBay,South
2021-08-19T19:26:58Z,1629401219,2021,19,27,231.8104,231.8104,70.20679,-52.89786,-999.00,-999.00,-999.0,no,no,no,4434936,SPIT,USIABP,ICE-PPR<br>DiskoBay,South
2021-08-19T19:56:03Z,1629402964,2021,19,56,231.8306,231.8306,70.20799,-52.89718,-999.00,-999.00,-999.0,no,no,no,4434936,SPIT,USIABP,ICE-PPR<br>DiskoBay,South
2021-08-19T20:26:00Z,1629404761,2021,20,26,231.8514,231.8514,70.20953,-52.89718,-999.00,-999.00,-999.0,no,no,no,4434936,SPIT,USIABP,ICE-PPR<br>DiskoBay,South
2021-08-19T20:55:58Z,1629406558,2021,20,56,231.8722,231.8722,70.21146,-52.89804,-999.00,-999.00,-999.0,no,no,no,4434936,SPIT,USIABP,ICE-PPR<br>DiskoBay,South
2021-08-19T21:26:03Z,1629408364,2021,21,26,231.8931,231.8931,70.21384,-52.8999,-999.00,-999.00,-999.0,no,no,no,4434936,SPIT,USIABP,ICE-PPR<br>DiskoBay,South
2021-08-20T04:22:56Z,1629433377,2021,4,23,232.1826,232.1826,70.24218,-52.9556,-999.00,-999.00,-999.0,no,no,no,4434936,SPIT,USIABP,ICE-PPR<br>DiskoBay,South
2021-08-20T06:23:02Z,1629440582,2021,6,23,232.266,232.266,70.24001,-52.94496,-999.00,-999.00,-999.0,no,no,no,4434936,SPIT,USIABP,ICE-PPR<br>DiskoBay,South
2021-08-20T06:52:59Z,1629442380,2021,6,53,232.2868,232.2868,70.23915,-52.94075,-999.00,-999.00,-999.0,no,no,no,4434936,SPIT,USIABP,ICE-PPR<br>DiskoBay,South
2021-08-20T07:22:56Z,1629444177,2021,7,23,232.3076,232.3076,70.23846,-52.93723,-999.00,-999.00,-999.0,no,no,no,4434936,SPIT,USIABP,ICE-PPR<br>DiskoBay,South
2021-08-20T07:52:01Z,1629445922,2021,7,52,232.3278,232.3278,70.23799,-52.93384,-999.00,-999.00,-999.0,no,no,no,4434936,SPIT,USIABP,ICE-PPR<br>DiskoBay,South
2021-08-20T08:51:56Z,1629449516,2021,8,52,232.3694,232.3694,70.23762,-52.92892,-999.00,-999.00,-999.0,no,no,no,4434936,SPIT,USIABP,ICE-PPR<br>DiskoBay,South
2021-08-20T09:22:01Z,1629451322,2021,9,22,232.3903,232.3903,70.23779,-52.9278,-999.00,-999.00,-999.0,no,no,no,4434936,SPIT,USIABP,ICE-PPR<br>DiskoBay,South
2021-08-20T10:20:55Z,1629454856,2021,10,21,232.4312,232.4312,70.23907,-52.9283,-999.00,-999.00,-999.0,no,no,no,4434936,SPIT,USIABP,ICE-PPR<br>DiskoBay,South
2021-08-20T10:51:01Z,1629456661,2021,10,51,232.4521,232.4521,70.23997,-52.92984,-999.00,-999.00,-999.0,no,no,no,4434936,SPIT,USIABP,ICE-PPR<br>DiskoBay,South
2021-08-20T11:20:58Z,1629458459,2021,11,21,232.4729,232.4729,70.24106,-52.93243,-999.00,-999.00,-999.0,no,no,no,4434936,SPIT,USIABP,ICE-PPR<br>DiskoBay,South
2021-08-20T11:51:04Z,1629460264,2021,11,51,232.4938,232.4938,70.24229,-52.93555,-999.00,-999.00,-999.0,no,no,no,4434936,SPIT,USIABP,ICE-PPR<br>DiskoBay,South
2021-08-20T12:21:01Z,1629462061,2021,12,21,232.5146,232.5146,70.24375,-52.93941,-999.00,-999.00,-999.0,no,no,no,4434936,SPIT,USIABP,ICE-PPR<br>DiskoBay,South
2021-08-20T12:50:58Z,1629463859,2021,12,51,232.5354,232.5354,70.24512,-52.94336,-999.00,-999.00,-999.0,no,no,no,4434936,SPIT,USIABP,ICE-PPR<br>DiskoBay,South
2021-08-20T13:51:01Z,1629467461,2021,13,51,232.5771,232.5771,70.24827,-52.95154,-999.00,-999.00,-999.0,no,no,no,4434936,SPIT,USIABP,ICE-PPR<br>DiskoBay,South
2021-08-20T14:20:58Z,1629469259,2021,14,21,232.5979,232.5979,70.2497,-52.95532,-999.00,-999.00,-999.0,no,no,no,4434936,SPIT,USIABP,ICE-PPR<br>DiskoBay,South
2021-08-20T14:50:03Z,1629471004,2021,14,50,232.6181,232.6181,70.25082,-52.95804,-999.00,-999.00,-999.0,no,no,no,4434936,SPIT,USIABP,ICE-PPR<br>DiskoBay,South
2021-08-20T15:49:58Z,1629474598,2021,15,50,232.6597,232.6597,70.25194,-52.96127,-999.00,-999.00,-999.0,no,no,no,4434936,SPIT,USIABP,ICE-PPR<br>DiskoBay,South
2021-08-20T16:20:03Z,1629476404,2021,16,20,232.6806,232.6806,70.25216,-52.96136,-999.00,-999.00,-999.0,no,no,no,4434936,SPIT,USIABP,ICE-PPR<br>DiskoBay,South
2021-08-20T18:48:57Z,1629485338,2021,18,49,232.784,232.784,70.2513,-52.95016,-999.00,-999.00,-999.0,no,no,no,4434936,SPIT,USIABP,ICE-PPR<br>DiskoBay,South
2021-08-20T19:19:03Z,1629487143,2021,19,19,232.8049,232.8049,70.25109,-52.94759,-999.00,-999.00,-999.0,no,no,no,4434936,SPIT,USIABP,ICE-PPR<br>DiskoBay,South
2021-08-20T19:49:00Z,1629488940,2021,19,49,232.8257,232.8257,70.25113,-52.94553,-999.00,-999.00,-999.0,no,no,no,4434936,SPIT,USIABP,ICE-PPR<br>DiskoBay,South
2021-08-22T00:39:01Z,1629592741,2021,0,39,234.0271,234.0271,70.25957,-52.90109,-999.00,-999.00,-999.0,no,no,no,4434936,SPIT,USIABP,ICE-PPR<br>DiskoBay,South
2021-08-23T11:27:01Z,1629718021,2021,11,27,235.4771,235.4771,70.20792,-52.90305,-999.00,-999.00,-999.0,no,no,no,4434936,SPIT,USIABP,ICE-PPR<br>DiskoBay,South
2021-08-23T11:56:58Z,1629719819,2021,11,57,235.4979,235.4979,70.20742,-52.90181,-999.00,-999.00,-999.0,no,no,no,4434936,SPIT,USIABP,ICE-PPR<br>DiskoBay,South
2021-08-23T12:27:04Z,1629721624,2021,12,27,235.5188,235.5188,70.20721,-52.90267,-999.00,-999.00,-999.0,no,no,no,4434936,SPIT,USIABP,ICE-PPR<br>DiskoBay,South
2021-08-23T12:57:01Z,1629723421,2021,12,57,235.5396,235.5396,70.20747,-52.90533,-999.00,-999.00,-999.0,no,no,no,4434936,SPIT,USIABP,ICE-PPR<br>DiskoBay,South
2021-08-23T13:26:58Z,1629725219,2021,13,27,235.5604,235.5604,70.20824,-52.90857,-999.00,-999.00,-999.0,no,no,no,4434936,SPIT,USIABP,ICE-PPR<br>DiskoBay,South
2021-08-23T13:56:03Z,1629726964,2021,13,56,235.5806,235.5806,70.20957,-52.91355,-999.00,-999.00,-999.0,no,no,no,4434936,SPIT,USIABP,ICE-PPR<br>DiskoBay,South
2021-08-23T14:26:00Z,1629728761,2021,14,26,235.6014,235.6014,70.21093,-52.9199,-999.00,-999.00,-999.0,no,no,no,4434936,SPIT,USIABP,ICE-PPR<br>DiskoBay,South
2021-08-23T14:55:58Z,1629730558,2021,14,56,235.6222,235.6222,70.21253,-52.92651,-999.00,-999.00,-999.0,no,no,no,4434936,SPIT,USIABP,ICE-PPR<br>DiskoBay,South
2021-08-23T17:24:00Z,1629739440,2021,17,24,235.725,235.725,70.21915,-52.95111,-999.00,-999.00,-999.0,no,no,no,4434936,SPIT,USIABP,ICE-PPR<br>DiskoBay,South
2021-08-23T17:53:57Z,1629741237,2021,17,54,235.7458,235.7458,70.21953,-52.95231,-999.00,-999.00,-999.0,no,no,no,4434936,SPIT,USIABP,ICE-PPR<br>DiskoBay,South
2021-08-23T18:24:02Z,1629743043,2021,18,24,235.7667,235.7667,70.21966,-52.95291,-999.00,-999.00,-999.0,no,no,no,4434936,SPIT,USIABP,ICE-PPR<br>DiskoBay,South
2021-08-23T18:54:00Z,1629744840,2021,18,54,235.7875,235.7875,70.21965,-52.95235,-999.00,-999.00,-999.0,no,no,no,4434936,SPIT,USIABP,ICE-PPR<br>DiskoBay,South
2021-08-23T19:23:57Z,1629746637,2021,19,24,235.8083,235.8083,70.21965,-52.95038,-999.00,-999.00,-999.0,no,no,no,4434936,SPIT,USIABP,ICE-PPR<br>DiskoBay,South
2021-08-23T19:54:02Z,1629748443,2021,19,54,235.8292,235.8292,70.21938,-52.94678,-999.00,-999.00,-999.0,no,no,no,4434936,SPIT,USIABP,ICE-PPR<br>DiskoBay,South
2021-08-23T20:22:59Z,1629750180,2021,20,23,235.8493,235.8493,70.21885,-52.94247,-999.00,-999.00,-999.0,no,no,no,4434936,SPIT,USIABP,ICE-PPR<br>DiskoBay,South
2021-08-23T20:52:56Z,1629751977,2021,20,53,235.8701,235.8701,70.21816,-52.93801,-999.00,-999.00,-999.0,no,no,no,4434936,SPIT,USIABP,ICE-PPR<br>DiskoBay,South
2021-08-23T21:23:02Z,1629753782,2021,21,23,235.891,235.891,70.21756,-52.93338,-999.00,-999.00,-999.0,no,no,no,4434936,SPIT,USIABP,ICE-PPR<br>DiskoBay,South
2021-08-23T22:22:56Z,1629757377,2021,22,23,235.9326,235.9326,70.21639,-52.92627,-999.00,-999.00,-999.0,no,no,no,4434936,SPIT,USIABP,ICE-PPR<br>DiskoBay,South
2021-08-23T22:53:02Z,1629759182,2021,22,53,235.9535,235.9535,70.21635,-52.9249,-999.00,-999.00,-999.0,no,no,no,4434936,SPIT,USIABP,ICE-PPR<br>DiskoBay,South
2021-08-23T23:22:59Z,1629760980,2021,23,23,235.9743,235.9743,70.21682,-52.9249,-999.00,-999.00,-999.0,no,no,no,4434936,SPIT,USIABP,ICE-PPR<br>DiskoBay,South
2021-08-24T00:22:01Z,1629764522,2021,0,22,236.0153,236.0153,70.21894,-52.92873,-999.00,-999.00,-999.0,no,no,no,4434936,SPIT,USIABP,ICE-PPR<br>DiskoBay,South
2021-08-24T00:51:59Z,1629766319,2021,0,52,236.0361,236.0361,70.22083,-52.93259,-999.00,-999.00,-999.0,no,no,no,4434936,SPIT,USIABP,ICE-PPR<br>DiskoBay,South
2021-08-24T01:21:56Z,1629768116,2021,1,22,236.0569,236.0569,70.22319,-52.93817,-999.00,-999.00,-999.0,no,no,no,4434936,SPIT,USIABP,ICE-PPR<br>DiskoBay,South
2021-08-24T01:51:01Z,1629769861,2021,1,51,236.0771,236.0771,70.22581,-52.94362,-999.00,-999.00,-999.0,no,no,no,4434936,SPIT,USIABP,ICE-PPR<br>DiskoBay,South
2021-08-24T02:20:58Z,1629771659,2021,2,21,236.0979,236.0979,70.22834,-52.94894,-999.00,-999.00,-999.0,no,no,no,4434936,SPIT,USIABP,ICE-PPR<br>DiskoBay,South
2021-08-24T02:51:04Z,1629773464,2021,2,51,236.1188,236.1188,70.23074,-52.95567,-999.00,-999.00,-999.0,no,no,no,4434936,SPIT,USIABP,ICE-PPR<br>DiskoBay,South
2021-08-24T03:21:01Z,1629775261,2021,3,21,236.1396,236.1396,70.23284,-52.96288,-999.00,-999.00,-999.0,no,no,no,4434936,SPIT,USIABP,ICE-PPR<br>DiskoBay,South
2021-08-24T03:50:58Z,1629777059,2021,3,51,236.1604,236.1604,70.23481,-52.97052,-999.00,-999.00,-999.0,no,no,no,4434936,SPIT,USIABP,ICE-PPR<br>DiskoBay,South
2021-08-24T04:50:00Z,1629780601,2021,4,50,236.2014,236.2014,70.23815,-52.9852,-999.00,-999.00,-999.0,no,no,no,4434936,SPIT,USIABP,ICE-PPR<br>DiskoBay,South
2021-08-24T05:19:58Z,1629782398,2021,5,20,236.2222,236.2222,70.23927,-52.99121,-999.00,-999.00,-999.0,no,no,no,4434936,SPIT,USIABP,ICE-PPR<br>DiskoBay,South
2021-08-24T05:50:03Z,1629784204,2021,5,50,236.2431,236.2431,70.23999,-52.99576,-999.00,-999.00,-999.0,no,no,no,4434936,SPIT,USIABP,ICE-PPR<br>DiskoBay,South
2021-08-24T06:48:57Z,1629787738,2021,6,49,236.284,236.284,70.24079,-52.9982,-999.00,-999.00,-999.0,no,no,no,4434936,SPIT,USIABP,ICE-PPR<br>DiskoBay,South
2021-08-24T07:19:03Z,1629789543,2021,7,19,236.3049,236.3049,70.24079,-52.99623,-999.00,-999.00,-999.0,no,no,no,4434936,SPIT,USIABP,ICE-PPR<br>DiskoBay,South
2021-08-24T07:49:00Z,1629791340,2021,7,49,236.3257,236.3257,70.24046,-52.9928,-999.00,-999.00,-999.0,no,no,no,4434936,SPIT,USIABP,ICE-PPR<br>DiskoBay,South
2021-08-24T17:15:56Z,1629825356,2021,17,16,236.7194,236.7194,70.24745,-53.0025,-999.00,-999.00,-999.0,no,no,no,4434936,SPIT,USIABP,ICE-PPR<br>DiskoBay,South
2021-08-24T20:45:01Z,1629837901,2021,20,45,236.8646,236.8646,70.24848,-53.00943,-999.00,-999.00,-999.0,no,no,no,4434936,SPIT,USIABP,ICE-PPR<br>DiskoBay,South
2021-08-25T00:12:57Z,1629850378,2021,0,13,237.009,237.009,70.24545,-53.00433,-999.00,-999.00,-999.0,no,no,no,4434936,SPIT,USIABP,ICE-PPR<br>DiskoBay,South
2021-08-25T01:12:00Z,1629853920,2021,1,12,237.05,237.05,70.24818,-53.01366,-999.00,-999.00,-999.0,no,no,no,4434936,SPIT,USIABP,ICE-PPR<br>DiskoBay,South
2021-08-25T01:42:57Z,1629855778,2021,1,43,237.0715,237.0715,70.25005,-53.01923,-999.00,-999.00,-999.0,no,no,no,4434936,SPIT,USIABP,ICE-PPR<br>DiskoBay,South
2021-08-25T02:12:02Z,1629857523,2021,2,12,237.0917,237.0917,70.25227,-53.02628,-999.00,-999.00,-999.0,no,no,no,4434936,SPIT,USIABP,ICE-PPR<br>DiskoBay,South
2021-08-25T11:38:58Z,1629891539,2021,11,39,237.4854,237.4854,70.27494,-53.12247,-999.00,-999.00,-999.0,no,no,no,4434936,SPIT,USIABP,ICE-PPR<br>DiskoBay,South
2021-08-25T12:08:55Z,1629893336,2021,12,9,237.5062,237.5062,70.27587,-53.12413,-999.00,-999.00,-999.0,no,no,no,4434936,SPIT,USIABP,ICE-PPR<br>DiskoBay,South
2021-08-25T12:39:01Z,1629895141,2021,12,39,237.5271,237.5271,70.27703,-53.12739,-999.00,-999.00,-999.0,no,no,no,4434936,SPIT,USIABP,ICE-PPR<br>DiskoBay,South
2021-08-25T13:08:58Z,1629896939,2021,13,9,237.5479,237.5479,70.27822,-53.13245,-999.00,-999.00,-999.0,no,no,no,4434936,SPIT,USIABP,ICE-PPR<br>DiskoBay,South
2021-08-26T22:27:59Z,1630016879,2021,22,28,238.9361,238.9361,70.32989,-53.65826,-999.00,-999.00,-999.0,no,no,no,4434936,SPIT,USIABP,ICE-PPR<br>DiskoBay,South
2021-08-27T13:22:56Z,1630070577,2021,13,23,239.5576,239.5576,70.34524,-53.81931,-999.00,-999.00,-999.0,no,no,no,4434936,SPIT,USIABP,ICE-PPR<br>DiskoBay,South
2021-08-27T14:22:59Z,1630074180,2021,14,23,239.5993,239.5993,70.34752,-53.82248,-999.00,-999.00,-999.0,no,no,no,4434936,SPIT,USIABP,ICE-PPR<br>DiskoBay,South
2021-08-27T14:51:56Z,1630075916,2021,14,52,239.6194,239.6194,70.34851,-53.82808,-999.00,-999.00,-999.0,no,no,no,4434936,SPIT,USIABP,ICE-PPR<br>DiskoBay,South
2021-08-27T15:22:01Z,1630077722,2021,15,22,239.6403,239.6403,70.34959,-53.83606,-999.00,-999.00,-999.0,no,no,no,4434936,SPIT,USIABP,ICE-PPR<br>DiskoBay,South
2021-08-27T15:51:59Z,1630079519,2021,15,52,239.6611,239.6611,70.35048,-53.84705,-999.00,-999.00,-999.0,no,no,no,4434936,SPIT,USIABP,ICE-PPR<br>DiskoBay,South
2021-08-27T16:21:56Z,1630081316,2021,16,22,239.6819,239.6819,70.35142,-53.86145,-999.00,-999.00,-999.0,no,no,no,4434936,SPIT,USIABP,ICE-PPR<br>DiskoBay,South
2021-08-27T16:52:01Z,1630083122,2021,16,52,239.7028,239.7028,70.35249,-53.87793,-999.00,-999.00,-999.0,no,no,no,4434936,SPIT,USIABP,ICE-PPR<br>DiskoBay,South
2021-08-27T17:21:59Z,1630084919,2021,17,22,239.7236,239.7236,70.35381,-53.89703,-999.00,-999.00,-999.0,no,no,no,4434936,SPIT,USIABP,ICE-PPR<br>DiskoBay,South
2021-08-27T18:22:01Z,1630088522,2021,18,22,239.7653,239.7653,70.35657,-53.93567,-999.00,-999.00,-999.0,no,no,no,4434936,SPIT,USIABP,ICE-PPR<br>DiskoBay,South
2021-08-27T19:20:55Z,1630092056,2021,19,21,239.8062,239.8062,70.35888,-53.96779,-999.00,-999.00,-999.0,no,no,no,4434936,SPIT,USIABP,ICE-PPR<br>DiskoBay,South
2021-08-27T19:51:01Z,1630093861,2021,19,51,239.8271,239.8271,70.36011,-53.9786,-999.00,-999.00,-999.0,no,no,no,4434936,SPIT,USIABP,ICE-PPR<br>DiskoBay,South
2021-08-27T20:20:58Z,1630095659,2021,20,21,239.8479,239.8479,70.36102,-53.98615,-999.00,-999.00,-999.0,no,no,no,4434936,SPIT,USIABP,ICE-PPR<br>DiskoBay,South
2021-08-27T20:51:04Z,1630097464,2021,20,51,239.8688,239.8688,70.36138,-53.99164,-999.00,-999.00,-999.0,no,no,no,4434936,SPIT,USIABP,ICE-PPR<br>DiskoBay,South
2021-08-27T21:21:01Z,1630099261,2021,21,21,239.8896,239.8896,70.3609,-53.99315,-999.00,-999.00,-999.0,no,no,no,4434936,SPIT,USIABP,ICE-PPR<br>DiskoBay,South
2021-08-27T21:50:58Z,1630101059,2021,21,51,239.9104,239.9104,70.35996,-53.99289,-999.00,-999.00,-999.0,no,no,no,4434936,SPIT,USIABP,ICE-PPR<br>DiskoBay,South
2021-08-28T01:20:03Z,1630113604,2021,1,20,240.0556,240.0556,70.3573,-53.9906,-999.00,-999.00,-999.0,no,no,no,4434936,SPIT,USIABP,ICE-PPR<br>DiskoBay,South
2021-08-28T01:50:00Z,1630115401,2021,1,50,240.0764,240.0764,70.358,-53.99454,-999.00,-999.00,-999.0,no,no,no,4434936,SPIT,USIABP,ICE-PPR<br>DiskoBay,South
2021-08-28T02:19:58Z,1630117198,2021,2,20,240.0972,240.0972,70.35908,-54.0014,-999.00,-999.00,-999.0,no,no,no,4434936,SPIT,USIABP,ICE-PPR<br>DiskoBay,South
2021-08-28T02:49:03Z,1630118943,2021,2,49,240.1174,240.1174,70.3604,-54.01035,-999.00,-999.00,-999.0,no,no,no,4434936,SPIT,USIABP,ICE-PPR<br>DiskoBay,South
2021-08-28T03:19:00Z,1630120740,2021,3,19,240.1382,240.1382,70.36199,-54.02185,-999.00,-999.00,-999.0,no,no,no,4434936,SPIT,USIABP,ICE-PPR<br>DiskoBay,South
2021-08-28T05:48:02Z,1630129683,2021,5,48,240.2417,240.2417,70.37267,-54.10019,-999.00,-999.00,-999.0,no,no,no,4434936,SPIT,USIABP,ICE-PPR<br>DiskoBay,South
2021-08-28T06:18:00Z,1630131480,2021,6,18,240.2625,240.2625,70.37457,-54.1175,-999.00,-999.00,-999.0,no,no,no,4434936,SPIT,USIABP,ICE-PPR<br>DiskoBay,South
2021-08-28T06:47:57Z,1630133277,2021,6,48,240.2833,240.2833,70.37642,-54.13312,-999.00,-999.00,-999.0,no,no,no,4434936,SPIT,USIABP,ICE-PPR<br>DiskoBay,South
2021-08-28T16:14:00Z,1630167241,2021,16,14,240.6764,240.6764,70.37044,-54.16205,-999.00,-999.00,-999.0,no,no,no,4434936,SPIT,USIABP,ICE-PPR<br>DiskoBay,South
2021-08-28T17:44:00Z,1630172641,2021,17,44,240.7389,240.7389,70.38033,-54.20505,-999.00,-999.00,-999.0,no,no,no,4434936,SPIT,USIABP,ICE-PPR<br>DiskoBay,South
2021-08-28T23:42:00Z,1630194120,2021,23,42,240.9875,240.9875,70.39781,-54.25565,-999.00,-999.00,-999.0,no,no,no,4434936,SPIT,USIABP,ICE-PPR<br>DiskoBay,South
2021-08-29T10:38:03Z,1630233484,2021,10,38,241.4431,241.4431,70.4156,-54.27042,-999.00,-999.00,-999.0,no,no,no,4434936,SPIT,USIABP,ICE-PPR<br>DiskoBay,South
2021-08-29T12:37:00Z,1630240620,2021,12,37,241.5257,241.5257,70.40577,-54.2569,-999.00,-999.00,-999.0,no,no,no,4434936,SPIT,USIABP,ICE-PPR<br>DiskoBay,South
2021-08-29T13:06:57Z,1630242418,2021,13,7,241.5465,241.5465,70.40294,-54.25439,-999.00,-999.00,-999.0,no,no,no,4434936,SPIT,USIABP,ICE-PPR<br>DiskoBay,South
2021-08-29T13:37:03Z,1630244223,2021,13,37,241.5674,241.5674,70.40049,-54.2531,-999.00,-999.00,-999.0,no,no,no,4434936,SPIT,USIABP,ICE-PPR<br>DiskoBay,South
2021-08-29T14:07:00Z,1630246020,2021,14,7,241.5882,241.5882,70.39856,-54.25336,-999.00,-999.00,-999.0,no,no,no,4434936,SPIT,USIABP,ICE-PPR<br>DiskoBay,South
2021-08-29T15:06:02Z,1630249563,2021,15,6,241.6292,241.6292,70.39678,-54.25881,-999.00,-999.00,-999.0,no,no,no,4434936,SPIT,USIABP,ICE-PPR<br>DiskoBay,South
2021-08-29T15:36:00Z,1630251360,2021,15,36,241.65,241.65,70.39704,-54.26387,-999.00,-999.00,-999.0,no,no,no,4434936,SPIT,USIABP,ICE-PPR<br>DiskoBay,South
2021-08-29T16:05:57Z,1630253157,2021,16,6,241.6708,241.6708,70.39846,-54.26996,-999.00,-999.00,-999.0,no,no,no,4434936,SPIT,USIABP,ICE-PPR<br>DiskoBay,South
2021-08-29T16:35:02Z,1630254902,2021,16,35,241.691,241.691,70.40057,-54.27658,-999.00,-999.00,-999.0,no,no,no,4434936,SPIT,USIABP,ICE-PPR<br>DiskoBay,South
2021-08-29T17:04:59Z,1630256700,2021,17,5,241.7118,241.7118,70.40313,-54.28379,-999.00,-999.00,-999.0,no,no,no,4434936,SPIT,USIABP,ICE-PPR<br>DiskoBay,South
2021-08-29T17:34:56Z,1630258497,2021,17,35,241.7326,241.7326,70.40597,-54.29083,-999.00,-999.00,-999.0,no,no,no,4434936,SPIT,USIABP,ICE-PPR<br>DiskoBay,South
2021-08-29T21:04:01Z,1630271042,2021,21,4,241.8778,241.8778,70.42829,-54.32227,-999.00,-999.00,-999.0,no,no,no,4434936,SPIT,USIABP,ICE-PPR<br>DiskoBay,South
2021-08-30T00:32:58Z,1630283579,2021,0,33,242.0229,242.0229,70.43702,-54.31458,-999.00,-999.00,-999.0,no,no,no,4434936,SPIT,USIABP,ICE-PPR<br>DiskoBay,South
2021-08-30T01:33:01Z,1630287181,2021,1,33,242.0646,242.0646,70.43734,-54.30902,-999.00,-999.00,-999.0,no,no,no,4434936,SPIT,USIABP,ICE-PPR<br>DiskoBay,South
2021-08-30T02:01:58Z,1630288918,2021,2,2,242.0847,242.0847,70.43753,-54.30657,-999.00,-999.00,-999.0,no,no,no,4434936,SPIT,USIABP,ICE-PPR<br>DiskoBay,South
2021-08-30T02:32:03Z,1630290724,2021,2,32,242.1056,242.1056,70.43765,-54.30477,-999.00,-999.00,-999.0,no,no,no,4434936,SPIT,USIABP,ICE-PPR<br>DiskoBay,South